Year,Month,Day,Hour,Minute,Value (Times are PST for temperature in C)
2010,02,25,08,50,7.80
2010,02,25,08,51,7.80
2010,02,25,08,52,7.80
2010,02,25,08,53,7.90
2010,02,25,08,54,7.90
2010,02,25,08,55,8.00
2010,02,25,08,56,8.00
2010,02,25,08,57,8.00
2010,02,25,08,58,8.10
2010,02,25,08,59,8.10
2010,02,25,09,00,8.10
2010,02,25,09,01,8.10
2010,02,25,09,02,8.10
2010,02,25,09,03,8.20
2010,02,25,09,04,8.20
2010,02,25,09,05,8.20
2010,02,25,09,06,8.20
2010,02,25,09,07,8.20
2010,02,25,09,08,8.20
2010,02,25,09,09,8.20
2010,02,25,09,10,8.20
2010,02,25,09,11,8.20
2010,02,25,09,12,8.20
2010,02,25,09,13,8.20
2010,02,25,09,14,8.30
2010,02,25,09,15,8.30
2010,02,25,09,16,8.20
2010,02,25,09,17,8.30
2010,02,25,09,18,8.30
2010,02,25,09,19,8.30
2010,02,25,09,20,8.30
2010,02,25,09,21,8.20
2010,02,25,09,22,8.20
2010,02,25,09,23,8.20
2010,02,25,09,24,8.20
2010,02,25,09,25,8.20
2010,02,25,09,26,8.20
2010,02,25,09,27,8.20
2010,02,25,09,28,8.20
2010,02,25,09,29,8.20
2010,02,25,09,30,8.20
2010,02,25,09,31,8.20
2010,02,25,09,32,8.20
2010,02,25,09,33,8.30
2010,02,25,09,34,8.30
2010,02,25,09,35,8.30
2010,02,25,09,36,8.40
2010,02,25,09,37,8.40
2010,02,25,09,38,8.50
2010,02,25,09,39,8.60
2010,02,25,09,40,8.60
2010,02,25,09,41,8.70
2010,02,25,09,42,8.70
2010,02,25,09,43,8.80
2010,02,25,09,44,8.80
2010,02,25,09,45,8.90
2010,02,25,09,46,9.00
2010,02,25,09,47,9.10
2010,02,25,09,48,9.10
2010,02,25,09,49,9.10
2010,02,25,09,50,9.20
2010,02,25,09,51,9.30
2010,02,25,09,52,9.30
2010,02,25,09,53,9.30
2010,02,25,09,54,9.40
2010,02,25,09,55,9.40
2010,02,25,09,56,9.40
2010,02,25,09,57,9.50
2010,02,25,09,58,9.60
2010,02,25,09,59,9.60
2010,02,25,10,00,9.60
2010,02,25,10,01,9.60
2010,02,25,10,02,9.50
2010,02,25,10,03,9.40
2010,02,25,10,04,9.50
2010,02,25,10,05,9.60
2010,02,25,10,06,9.60
2010,02,25,10,07,9.60
2010,02,25,10,08,9.70
2010,02,25,10,09,9.60
2010,02,25,10,10,9.60
2010,02,25,10,11,9.60
2010,02,25,10,12,9.60
2010,02,25,10,13,9.60
2010,02,25,10,14,9.70
2010,02,25,10,15,9.70
2010,02,25,10,16,9.60
2010,02,25,10,17,9.70
2010,02,25,10,18,9.70
2010,02,25,10,19,9.80
2010,02,25,10,20,9.80
2010,02,25,10,21,9.90
2010,02,25,10,22,9.90
2010,02,25,10,23,10.00
2010,02,25,10,24,10.00
2010,02,25,10,25,9.90
2010,02,25,10,26,9.90
2010,02,25,10,27,9.80
2010,02,25,10,28,9.90
2010,02,25,10,29,9.90
2010,02,25,10,30,9.90
2010,02,25,10,31,9.90
2010,02,25,10,32,10.00
2010,02,25,10,33,10.00
2010,02,25,10,34,10.00
2010,02,25,10,35,10.00
2010,02,25,10,36,9.90
2010,02,25,10,37,9.90
2010,02,25,10,38,9.90
2010,02,25,10,39,9.90
2010,02,25,10,40,10.00
2010,02,25,10,41,10.10
2010,02,25,10,42,10.10
2010,02,25,10,43,10.20
2010,02,25,10,44,10.20
2010,02,25,10,45,10.20
2010,02,25,10,46,10.30
2010,02,25,10,47,10.30
2010,02,25,10,48,10.30
2010,02,25,10,49,10.30
2010,02,25,10,50,10.30
2010,02,25,10,51,10.30
2010,02,25,10,52,10.30
2010,02,25,10,53,10.30
2010,02,25,10,54,10.30
2010,02,25,10,55,10.20
2010,02,25,10,56,10.20
2010,02,25,10,57,10.10
2010,02,25,10,58,10.00
2010,02,25,10,59,9.90
2010,02,25,11,00,9.90
2010,02,25,11,01,9.90
2010,02,25,11,02,9.90
2010,02,25,11,03,9.90
2010,02,25,11,04,9.90
2010,02,25,11,05,10.00
2010,02,25,11,06,10.00
2010,02,25,11,07,10.00
2010,02,25,11,08,10.00
2010,02,25,11,09,10.00
2010,02,25,11,10,9.90
2010,02,25,11,11,9.90
2010,02,25,11,12,10.00
2010,02,25,11,13,10.00
2010,02,25,11,14,10.10
2010,02,25,11,15,10.10
2010,02,25,11,16,10.10
2010,02,25,11,17,10.00
2010,02,25,11,18,10.00
2010,02,25,11,19,10.00
2010,02,25,11,20,9.90
2010,02,25,11,21,9.90
2010,02,25,11,22,9.80
2010,02,25,11,23,9.70
2010,02,25,11,24,9.60
2010,02,25,11,25,9.60
2010,02,25,11,26,9.50
2010,02,25,11,27,9.40
2010,02,25,11,28,9.40
2010,02,25,11,29,9.40
2010,02,25,11,30,9.50
2010,02,25,11,31,9.50
2010,02,25,11,32,9.60
2010,02,25,11,33,9.60
2010,02,25,11,34,9.70
2010,02,25,11,35,9.70
2010,02,25,11,36,9.70
2010,02,25,11,37,9.80
2010,02,25,11,38,9.80
2010,02,25,11,39,9.90
2010,02,25,11,40,9.90
2010,02,25,11,41,9.90
2010,02,25,11,42,9.90
2010,02,25,11,43,9.90
2010,02,25,11,44,10.00
2010,02,25,11,45,10.00
2010,02,25,11,46,10.00
2010,02,25,11,47,10.10
2010,02,25,11,48,10.00
2010,02,25,11,49,10.00
2010,02,25,11,50,10.00
2010,02,25,11,51,10.10
2010,02,25,11,52,10.00
2010,02,25,11,53,10.00
2010,02,25,11,54,10.00
2010,02,25,11,55,9.90
2010,02,25,11,56,9.90
2010,02,25,11,57,10.00
2010,02,25,11,58,10.00
2010,02,25,11,59,10.10
2010,02,25,12,00,10.10
2010,02,25,12,01,10.20
2010,02,25,12,02,10.20
2010,02,25,12,03,10.20
2010,02,25,12,04,10.20
2010,02,25,12,05,10.20
2010,02,25,12,06,10.20
2010,02,25,12,07,10.20
2010,02,25,12,08,10.20
2010,02,25,12,09,10.30
2010,02,25,12,10,10.30
2010,02,25,12,11,10.40
2010,02,25,12,12,10.50
2010,02,25,12,13,10.60
2010,02,25,12,14,10.70
2010,02,25,12,15,10.80
2010,02,25,12,16,10.90
2010,02,25,12,17,10.90
2010,02,25,12,18,10.90
2010,02,25,12,19,11.00
2010,02,25,12,20,11.10
2010,02,25,12,21,11.00
2010,02,25,12,22,11.00
2010,02,25,12,23,10.90
2010,02,25,12,24,10.90
2010,02,25,12,25,10.90
2010,02,25,12,26,10.90
2010,02,25,12,27,10.80
2010,02,25,12,28,10.70
2010,02,25,12,29,10.70
2010,02,25,12,30,10.70
2010,02,25,12,31,10.70
2010,02,25,12,32,10.70
2010,02,25,12,33,10.70
2010,02,25,12,34,10.80
2010,02,25,12,35,10.80
2010,02,25,12,36,10.80
2010,02,25,12,37,10.90
2010,02,25,12,38,11.00
2010,02,25,12,39,11.00
2010,02,25,12,40,11.10
2010,02,25,12,41,11.10
2010,02,25,12,42,11.00
2010,02,25,12,43,11.00
2010,02,25,12,44,11.10
2010,02,25,12,45,11.10
2010,02,25,12,46,11.10
2010,02,25,12,47,11.10
2010,02,25,12,48,11.10
2010,02,25,12,49,11.10
2010,02,25,12,50,11.00
2010,02,25,12,51,10.90
2010,02,25,12,52,10.90
2010,02,25,12,53,10.80
2010,02,25,12,54,10.70
2010,02,25,12,55,10.70
2010,02,25,12,56,10.70
2010,02,25,12,57,10.70
2010,02,25,12,58,10.70
2010,02,25,12,59,10.70
2010,02,25,13,00,10.70
2010,02,25,13,01,10.70
2010,02,25,13,02,10.80
2010,02,25,13,03,10.80
2010,02,25,13,04,10.70
2010,02,25,13,05,10.70
2010,02,25,13,06,10.70
2010,02,25,13,07,10.80
2010,02,25,13,08,10.80
2010,02,25,13,09,10.80
2010,02,25,13,10,10.80
2010,02,25,13,11,10.90
2010,02,25,13,12,10.90
2010,02,25,13,13,11.00
2010,02,25,13,14,11.10
2010,02,25,13,15,11.10
2010,02,25,13,16,11.20
2010,02,25,13,17,11.20
2010,02,25,13,18,11.30
2010,02,25,13,19,11.40
2010,02,25,13,20,11.30
2010,02,25,13,21,11.20
2010,02,25,13,22,11.20
2010,02,25,13,23,11.20
2010,02,25,13,24,11.20
2010,02,25,13,25,11.20
2010,02,25,13,26,11.10
2010,02,25,13,27,11.00
2010,02,25,13,28,11.00
2010,02,25,13,29,10.90
2010,02,25,13,30,10.90
2010,02,25,13,31,10.90
2010,02,25,13,32,11.00
2010,02,25,13,33,11.00
2010,02,25,13,34,11.10
2010,02,25,13,35,11.20
2010,02,25,13,36,11.30
2010,02,25,13,37,11.40
2010,02,25,13,38,11.40
2010,02,25,13,39,11.50
2010,02,25,13,40,11.60
2010,02,25,13,41,11.60
2010,02,25,13,42,11.70
2010,02,25,13,43,11.80
2010,02,25,13,44,11.80
2010,02,25,13,45,11.80
2010,02,25,13,46,11.80
2010,02,25,13,47,11.80
2010,02,25,13,48,11.80
2010,02,25,13,49,11.80
2010,02,25,13,50,11.80
2010,02,25,13,51,11.80
2010,02,25,13,52,11.80
2010,02,25,13,53,11.70
2010,02,25,13,54,11.70
2010,02,25,13,55,11.70
2010,02,25,13,56,11.60
2010,02,25,13,57,11.60
2010,02,25,13,58,11.50
2010,02,25,13,59,11.50
2010,02,25,14,00,11.40
2010,02,25,14,01,11.40
2010,02,25,14,02,11.40
2010,02,25,14,03,11.40
2010,02,25,14,04,11.50
2010,02,25,14,05,11.60
2010,02,25,14,06,11.70
2010,02,25,14,07,11.80
2010,02,25,14,08,11.80
2010,02,25,14,09,11.80
2010,02,25,14,10,11.80
2010,02,25,14,11,11.70
2010,02,25,14,12,11.50
2010,02,25,14,13,11.40
2010,02,25,14,14,11.30
2010,02,25,14,15,11.30
2010,02,25,14,16,11.30
2010,02,25,14,17,11.30
2010,02,25,14,18,11.30
2010,02,25,14,19,11.20
2010,02,25,14,20,11.10
2010,02,25,14,21,11.10
2010,02,25,14,22,11.10
2010,02,25,14,23,11.20
2010,02,25,14,24,11.10
2010,02,25,14,25,11.00
2010,02,25,14,26,11.00
2010,02,25,14,27,11.00
2010,02,25,14,28,10.90
2010,02,25,14,29,10.90
2010,02,25,14,30,11.00
2010,02,25,14,31,11.00
2010,02,25,14,32,11.10
2010,02,25,14,33,11.10
2010,02,25,14,34,11.20
2010,02,25,14,35,11.30
2010,02,25,14,36,11.30
2010,02,25,14,37,11.30
2010,02,25,14,38,11.30
2010,02,25,14,39,11.30
2010,02,25,14,40,11.40
2010,02,25,14,41,11.50
2010,02,25,14,42,11.60
2010,02,25,14,43,11.60
2010,02,25,14,44,11.60
2010,02,25,14,45,11.60
2010,02,25,14,46,11.60
2010,02,25,14,47,11.60
2010,02,25,14,48,11.50
2010,02,25,14,49,11.50
2010,02,25,14,50,11.50
2010,02,25,14,51,11.40
2010,02,25,14,52,11.40
2010,02,25,14,53,11.30
2010,02,25,14,54,11.30
2010,02,25,14,55,11.30
2010,02,25,14,56,11.40
2010,02,25,14,57,11.50
2010,02,25,14,58,11.60
2010,02,25,14,59,11.70
2010,02,25,15,00,11.80
2010,02,25,15,01,11.80
2010,02,25,15,02,11.80
2010,02,25,15,03,11.80
2010,02,25,15,04,11.80
2010,02,25,15,05,11.80
2010,02,25,15,06,11.80
2010,02,25,15,07,11.80
2010,02,25,15,08,11.80
2010,02,25,15,09,11.80
2010,02,25,15,10,11.80
2010,02,25,15,11,11.80
2010,02,25,15,12,11.70
2010,02,25,15,13,11.60
2010,02,25,15,14,11.50
2010,02,25,15,15,11.40
2010,02,25,15,16,11.30
2010,02,25,15,17,11.20
2010,02,25,15,18,11.00
2010,02,25,15,19,10.90
2010,02,25,15,20,10.80
2010,02,25,15,21,10.70
2010,02,25,15,22,10.70
2010,02,25,15,23,10.70
2010,02,25,15,24,10.70
2010,02,25,15,25,10.70
2010,02,25,15,26,10.70
2010,02,25,15,27,10.70
2010,02,25,15,28,10.70
2010,02,25,15,29,10.60
2010,02,25,15,30,10.60
2010,02,25,15,31,10.60
2010,02,25,15,32,10.50
2010,02,25,15,33,10.50
2010,02,25,15,34,10.40
2010,02,25,15,35,10.40
2010,02,25,15,36,10.30
2010,02,25,15,37,10.30
2010,02,25,15,38,10.20
2010,02,25,15,39,10.20
2010,02,25,15,40,10.10
2010,02,25,15,41,10.00
2010,02,25,15,42,10.00
2010,02,25,15,43,10.00
2010,02,25,15,44,10.00
2010,02,25,15,45,10.00
2010,02,25,15,46,10.00
2010,02,25,15,47,10.00
2010,02,25,15,48,10.00
2010,02,25,15,49,10.00
2010,02,25,15,50,10.00
2010,02,25,15,51,10.00
